Year,Month,Day,Hour,Minute,Value (Times are PST for temperature in C)
2017,09,04,00,00,27.20
2017,09,04,00,01,27.20
2017,09,04,00,02,27.10
2017,09,04,00,03,27.10
2017,09,04,00,04,27.10
2017,09,04,00,05,27.00
2017,09,04,00,06,27.00
2017,09,04,00,07,26.90
2017,09,04,00,08,26.90
2017,09,04,00,09,26.90
2017,09,04,00,10,26.80
2017,09,04,00,11,26.80
2017,09,04,00,12,26.70
2017,09,04,00,13,26.70
2017,09,04,00,14,26.70
2017,09,04,00,15,26.70
2017,09,04,00,16,26.60
2017,09,04,00,17,26.60
2017,09,04,00,18,26.60
2017,09,04,00,19,26.60
2017,09,04,00,20,26.60
2017,09,04,00,21,26.60
2017,09,04,00,22,26.50
2017,09,04,00,23,26.50
2017,09,04,00,24,26.50
2017,09,04,00,25,26.40
2017,09,04,00,26,26.40
2017,09,04,00,27,26.40
2017,09,04,00,28,26.30
2017,09,04,00,29,26.30
2017,09,04,00,30,26.30
2017,09,04,00,31,26.30
2017,09,04,00,32,26.20
2017,09,04,00,33,26.20
2017,09,04,00,34,26.20
2017,09,04,00,35,26.20
2017,09,04,00,36,26.20
2017,09,04,00,37,26.10
2017,09,04,00,38,26.10
2017,09,04,00,39,26.10
2017,09,04,00,40,26.10
2017,09,04,00,41,26.10
2017,09,04,00,42,26.10
2017,09,04,00,43,26.10
2017,09,04,00,44,26.10
2017,09,04,00,45,26.10
2017,09,04,00,46,26.10
2017,09,04,00,47,26.10
2017,09,04,00,48,26.10
2017,09,04,00,49,26.10
2017,09,04,00,50,26.10
2017,09,04,00,51,26.10
2017,09,04,00,52,26.10
2017,09,04,00,53,26.10
2017,09,04,00,54,26.10
2017,09,04,00,55,26.10
2017,09,04,00,56,26.10
2017,09,04,00,57,26.10
2017,09,04,00,58,26.10
2017,09,04,00,59,26.10
2017,09,04,01,00,26.10
2017,09,04,01,01,26.20
2017,09,04,01,02,26.20
2017,09,04,01,03,26.20
2017,09,04,01,04,26.20
2017,09,04,01,05,26.30
2017,09,04,01,06,26.30
2017,09,04,01,07,26.30
2017,09,04,01,08,26.30
2017,09,04,01,09,26.30
2017,09,04,01,10,26.30
2017,09,04,01,11,26.30
2017,09,04,01,12,26.40
2017,09,04,01,13,26.40
2017,09,04,01,14,26.40
2017,09,04,01,15,26.40
2017,09,04,01,16,26.40
2017,09,04,01,17,26.40
2017,09,04,01,18,26.40
2017,09,04,01,19,26.40
2017,09,04,01,20,26.40
2017,09,04,01,21,26.40
2017,09,04,01,22,26.40
2017,09,04,01,23,26.40
2017,09,04,01,24,26.40
2017,09,04,01,25,26.40
2017,09,04,01,26,26.40
2017,09,04,01,27,26.40
2017,09,04,01,28,26.40
2017,09,04,01,29,26.40
2017,09,04,01,30,26.50
2017,09,04,01,31,26.50
2017,09,04,01,32,26.40
2017,09,04,01,33,26.40
2017,09,04,01,34,26.40
2017,09,04,01,35,26.40
2017,09,04,01,36,26.40
2017,09,04,01,37,26.30
2017,09,04,01,38,26.30
2017,09,04,01,39,26.30
2017,09,04,01,40,26.30
2017,09,04,01,41,26.20
2017,09,04,01,42,26.20
2017,09,04,01,43,26.20
2017,09,04,01,44,26.20
2017,09,04,01,45,26.10
2017,09,04,01,46,26.10
2017,09,04,01,47,26.10
2017,09,04,01,48,26.10
2017,09,04,01,49,26.00
2017,09,04,01,50,26.00
2017,09,04,01,51,26.00
2017,09,04,01,52,26.00
2017,09,04,01,53,25.90
2017,09,04,01,54,25.90
2017,09,04,01,55,25.90
2017,09,04,01,56,25.90
2017,09,04,01,57,25.90
2017,09,04,01,58,25.90
2017,09,04,01,59,25.90
2017,09,04,02,00,25.90
2017,09,04,02,01,25.90
2017,09,04,02,02,25.90
2017,09,04,02,03,25.90
2017,09,04,02,04,26.00
2017,09,04,02,05,26.00
2017,09,04,02,06,26.00
2017,09,04,02,07,26.00
2017,09,04,02,08,26.00
2017,09,04,02,09,26.00
2017,09,04,02,10,26.00
2017,09,04,02,11,25.90
2017,09,04,02,12,25.90
2017,09,04,02,13,25.90
2017,09,04,02,14,25.90
2017,09,04,02,15,25.80
2017,09,04,02,16,25.80
2017,09,04,02,17,25.80
2017,09,04,02,18,25.80
2017,09,04,02,19,25.80
2017,09,04,02,20,25.80
2017,09,04,02,21,25.80
2017,09,04,02,22,25.80
2017,09,04,02,23,25.70
2017,09,04,02,24,25.70
2017,09,04,02,25,25.70
2017,09,04,02,26,25.70
2017,09,04,02,27,25.70
2017,09,04,02,28,25.70
2017,09,04,02,29,25.70
2017,09,04,02,30,25.70
2017,09,04,02,31,25.70
2017,09,04,02,32,25.70
2017,09,04,02,33,25.60
2017,09,04,02,34,25.60
2017,09,04,02,35,25.60
2017,09,04,02,36,25.60
2017,09,04,02,37,25.60
2017,09,04,02,38,25.60
2017,09,04,02,39,25.50
2017,09,04,02,40,25.50
2017,09,04,02,41,25.50
2017,09,04,02,42,25.50
2017,09,04,02,43,25.50
2017,09,04,02,44,25.50
2017,09,04,02,45,25.50
2017,09,04,02,46,25.50
2017,09,04,02,47,25.50
2017,09,04,02,48,25.50
2017,09,04,02,49,25.50
2017,09,04,02,50,25.60
2017,09,04,02,51,25.50
2017,09,04,02,52,25.50
2017,09,04,02,53,25.50
2017,09,04,02,54,25.50
2017,09,04,02,55,25.50
2017,09,04,02,56,25.50
2017,09,04,02,57,25.50
2017,09,04,02,58,25.40
2017,09,04,02,59,25.40
2017,09,04,03,00,25.40
2017,09,04,03,01,25.30
2017,09,04,03,02,25.30
2017,09,04,03,03,25.30
2017,09,04,03,04,25.20
2017,09,04,03,05,25.20
2017,09,04,03,06,25.10
2017,09,04,03,07,25.10
2017,09,04,03,08,25.10
2017,09,04,03,09,25.00
2017,09,04,03,10,25.00
2017,09,04,03,11,24.90
2017,09,04,03,12,24.90
2017,09,04,03,13,24.90
2017,09,04,03,14,24.80
2017,09,04,03,15,24.80
2017,09,04,03,16,24.80
2017,09,04,03,17,24.80
2017,09,04,03,18,24.80
2017,09,04,03,19,24.80
2017,09,04,03,20,24.80
2017,09,04,03,21,24.70
2017,09,04,03,22,24.70
2017,09,04,03,23,24.70
2017,09,04,03,24,24.70
2017,09,04,03,25,24.80
2017,09,04,03,26,24.80
2017,09,04,03,27,24.80
2017,09,04,03,28,24.80
2017,09,04,03,29,24.80
2017,09,04,03,30,24.80
2017,09,04,03,31,24.80
2017,09,04,03,32,24.70
2017,09,04,03,33,24.70
2017,09,04,03,34,24.70
2017,09,04,03,35,24.70
2017,09,04,03,36,24.70
2017,09,04,03,37,24.70
2017,09,04,03,38,24.70
2017,09,04,03,39,24.70
2017,09,04,03,40,24.70
2017,09,04,03,41,24.70
2017,09,04,03,42,24.70
2017,09,04,03,43,24.70
2017,09,04,03,44,24.70
2017,09,04,03,45,24.70
2017,09,04,03,46,24.70
2017,09,04,03,47,24.70
2017,09,04,03,48,24.70
2017,09,04,03,49,24.70
2017,09,04,03,50,24.70
2017,09,04,03,51,24.70
2017,09,04,03,52,24.70
2017,09,04,03,53,24.70
2017,09,04,03,54,24.70
2017,09,04,03,55,24.70
2017,09,04,03,56,24.70
2017,09,04,03,57,24.60
2017,09,04,03,58,24.60
2017,09,04,03,59,24.60
2017,09,04,04,00,24.60
2017,09,04,04,01,24.60
2017,09,04,04,02,24.60
2017,09,04,04,03,24.60
2017,09,04,04,04,24.50
2017,09,04,04,05,24.50
2017,09,04,04,06,24.50
2017,09,04,04,07,24.50
2017,09,04,04,08,24.50
2017,09,04,04,09,24.50
2017,09,04,04,10,24.50
2017,09,04,04,11,24.50
2017,09,04,04,12,24.50
2017,09,04,04,13,24.50
2017,09,04,04,14,24.50
2017,09,04,04,15,24.40
2017,09,04,04,16,24.40
2017,09,04,04,17,24.40
2017,09,04,04,18,24.40
2017,09,04,04,19,24.40
2017,09,04,04,20,24.40
2017,09,04,04,21,24.40
2017,09,04,04,22,24.40
2017,09,04,04,23,24.30
2017,09,04,04,24,24.30
2017,09,04,04,25,24.30
2017,09,04,04,26,24.30
2017,09,04,04,27,24.30
2017,09,04,04,28,24.30
2017,09,04,04,29,24.30
2017,09,04,04,30,24.20
2017,09,04,04,31,24.20
2017,09,04,04,32,24.20
2017,09,04,04,33,24.20
2017,09,04,04,34,24.10
2017,09,04,04,35,24.10
2017,09,04,04,36,24.10
2017,09,04,04,37,24.10
2017,09,04,04,38,24.00
2017,09,04,04,39,24.00
2017,09,04,04,40,24.00
2017,09,04,04,41,24.00
2017,09,04,04,42,24.10
2017,09,04,04,43,24.10
2017,09,04,04,44,24.10
2017,09,04,04,45,24.10
2017,09,04,04,46,24.10
2017,09,04,04,47,24.10
2017,09,04,04,48,24.10
2017,09,04,04,49,24.20
2017,09,04,04,50,24.10
2017,09,04,04,51,24.10
2017,09,04,04,52,24.10
2017,09,04,04,53,24.10
2017,09,04,04,54,24.10
2017,09,04,04,55,24.10
2017,09,04,04,56,24.00
2017,09,04,04,57,24.00
2017,09,04,04,58,24.00
2017,09,04,04,59,24.00
2017,09,04,05,00,24.10
2017,09,04,05,01,24.10
2017,09,04,05,02,24.10
2017,09,04,05,03,24.10
2017,09,04,05,04,24.10
2017,09,04,05,05,24.10
2017,09,04,05,06,24.00
2017,09,04,05,07,24.00
2017,09,04,05,08,24.00
2017,09,04,05,09,24.00
2017,09,04,05,10,24.00
2017,09,04,05,11,23.90
2017,09,04,05,12,24.00
2017,09,04,05,13,23.90
2017,09,04,05,14,23.90
2017,09,04,05,15,23.90
2017,09,04,05,16,23.90
2017,09,04,05,17,23.90
2017,09,04,05,18,23.90
2017,09,04,05,19,23.90
2017,09,04,05,20,23.90
2017,09,04,05,21,23.80
2017,09,04,05,22,23.80
2017,09,04,05,23,23.80
2017,09,04,05,24,23.80
2017,09,04,05,25,23.80
2017,09,04,05,26,23.80
2017,09,04,05,27,23.80
2017,09,04,05,28,23.80
2017,09,04,05,29,23.80
2017,09,04,05,30,23.70
2017,09,04,05,31,23.70
2017,09,04,05,32,23.70
2017,09,04,05,33,23.70
2017,09,04,05,34,23.70
2017,09,04,05,35,23.70
2017,09,04,05,36,23.70
2017,09,04,05,37,23.70
2017,09,04,05,38,23.70
2017,09,04,05,39,23.70
2017,09,04,05,40,23.60
2017,09,04,05,41,23.60
2017,09,04,05,42,23.60
2017,09,04,05,43,23.60
2017,09,04,05,44,23.60
2017,09,04,05,45,23.60
2017,09,04,05,46,23.60
2017,09,04,05,47,23.60
2017,09,04,05,48,23.60
2017,09,04,05,49,23.60
2017,09,04,05,50,23.50
2017,09,04,05,51,23.50
2017,09,04,05,52,23.50
2017,09,04,05,53,23.50
2017,09,04,05,54,23.60
2017,09,04,05,55,23.60
2017,09,04,05,56,23.60
2017,09,04,05,57,23.60
2017,09,04,05,58,23.60
2017,09,04,05,59,23.60
2017,09,04,06,00,23.60
2017,09,04,06,01,23.60
2017,09,04,06,02,23.60
2017,09,04,06,03,23.60
2017,09,04,06,04,23.60
2017,09,04,06,05,23.60
2017,09,04,06,06,23.60
2017,09,04,06,07,23.50
2017,09,04,06,08,23.50
2017,09,04,06,09,23.40
2017,09,04,06,10,23.40
2017,09,04,06,11,23.40
2017,09,04,06,12,23.40
2017,09,04,06,13,23.30
2017,09,04,06,14,23.30
2017,09,04,06,15,23.30
2017,09,04,06,16,23.30
2017,09,04,06,17,23.30
2017,09,04,06,18,23.20
2017,09,04,06,19,23.20
2017,09,04,06,20,23.20
2017,09,04,06,21,23.20
2017,09,04,06,22,23.20
2017,09,04,06,23,23.10
2017,09,04,06,24,23.10
2017,09,04,06,25,23.10
2017,09,04,06,26,23.10
2017,09,04,06,27,23.10
2017,09,04,06,28,23.10
2017,09,04,06,29,23.10
2017,09,04,06,30,23.00
2017,09,04,06,31,23.00
2017,09,04,06,32,23.00
2017,09,04,06,33,23.00
2017,09,04,06,34,23.00
2017,09,04,06,35,23.00
2017,09,04,06,36,23.00
2017,09,04,06,37,23.00
2017,09,04,06,38,22.90
2017,09,04,06,39,22.90
2017,09,04,06,40,23.00
2017,09,04,06,41,22.90
2017,09,04,06,42,22.90
2017,09,04,06,43,22.90
2017,09,04,06,44,22.90
2017,09,04,06,45,22.90
2017,09,04,06,46,22.90
2017,09,04,06,47,22.90
2017,09,04,06,48,22.90
2017,09,04,06,49,22.90
2017,09,04,06,50,22.90
2017,09,04,06,51,22.90
2017,09,04,06,52,22.90
2017,09,04,06,53,22.90
2017,09,04,06,54,22.90
2017,09,04,06,55,22.90
2017,09,04,06,56,22.90
2017,09,04,06,57,22.90
2017,09,04,06,58,22.90
2017,09,04,06,59,22.90
2017,09,04,07,00,22.80
2017,09,04,07,01,22.80
2017,09,04,07,02,22.80
2017,09,04,07,03,22.70
2017,09,04,07,04,22.60
2017,09,04,07,05,22.50
2017,09,04,07,06,22.40
2017,09,04,07,07,22.40
2017,09,04,07,08,22.30
2017,09,04,07,09,22.30
2017,09,04,07,10,22.20
2017,09,04,07,11,22.20
2017,09,04,07,12,22.20
2017,09,04,07,13,22.20
2017,09,04,07,14,22.20
2017,09,04,07,15,22.20
2017,09,04,07,16,22.10
2017,09,04,07,17,22.10
2017,09,04,07,18,22.10
2017,09,04,07,19,22.10
2017,09,04,07,20,22.10
2017,09,04,07,21,22.10
2017,09,04,07,22,22.10
2017,09,04,07,23,22.10
2017,09,04,07,24,22.10
2017,09,04,07,25,22.10
2017,09,04,07,26,22.20
2017,09,04,07,27,22.20
2017,09,04,07,28,22.20
2017,09,04,07,29,22.20
2017,09,04,07,30,22.30
2017,09,04,07,31,22.30
2017,09,04,07,32,22.40
2017,09,04,07,33,22.40
2017,09,04,07,34,22.40
2017,09,04,07,35,22.50
2017,09,04,07,36,22.50
2017,09,04,07,37,22.50
2017,09,04,07,38,22.60
2017,09,04,07,39,22.60
2017,09,04,07,40,22.60
2017,09,04,07,41,22.60
2017,09,04,07,42,22.60
2017,09,04,07,43,22.60
2017,09,04,07,44,22.60
2017,09,04,07,45,22.70
2017,09,04,07,46,22.80
2017,09,04,07,47,22.90
2017,09,04,07,48,23.00
2017,09,04,07,49,23.00
2017,09,04,07,50,23.10
2017,09,04,07,51,23.20
2017,09,04,07,52,23.20
2017,09,04,07,53,23.30
2017,09,04,07,54,23.30
2017,09,04,07,55,23.40
2017,09,04,07,56,23.50
2017,09,04,07,57,23.50
2017,09,04,07,58,23.60
2017,09,04,07,59,23.70
2017,09,04,08,00,23.70
2017,09,04,08,01,23.80
2017,09,04,08,02,23.80
2017,09,04,08,03,23.90
2017,09,04,08,04,23.90
2017,09,04,08,05,24.00
2017,09,04,08,06,24.10
2017,09,04,08,07,24.10
2017,09,04,08,08,24.20
2017,09,04,08,09,24.20
2017,09,04,08,10,24.30
2017,09,04,08,11,24.30
2017,09,04,08,12,24.30
2017,09,04,08,13,24.40
2017,09,04,08,14,24.40
2017,09,04,08,15,24.40
2017,09,04,08,16,24.50
2017,09,04,08,17,24.50
2017,09,04,08,18,24.60
2017,09,04,08,19,24.60
2017,09,04,08,20,24.70
2017,09,04,08,21,24.70
2017,09,04,08,22,24.70
2017,09,04,08,23,24.80
2017,09,04,08,24,24.80
2017,09,04,08,25,24.80
2017,09,04,08,26,24.80
2017,09,04,08,27,24.90
2017,09,04,08,28,24.90
2017,09,04,08,29,24.90
2017,09,04,08,30,24.90
2017,09,04,08,31,24.90
2017,09,04,08,32,25.00
2017,09,04,08,33,25.00
2017,09,04,08,34,25.00
2017,09,04,08,35,25.00
2017,09,04,08,36,25.10
2017,09,04,08,37,25.10
2017,09,04,08,38,25.10
2017,09,04,08,39,25.20
2017,09,04,08,40,25.20
2017,09,04,08,41,25.20
2017,09,04,08,42,25.30
2017,09,04,08,43,25.30
2017,09,04,08,44,25.40
2017,09,04,08,45,25.40
2017,09,04,08,46,25.40
2017,09,04,08,47,25.50
2017,09,04,08,48,25.50
2017,09,04,08,49,25.60
2017,09,04,08,50,25.60
2017,09,04,08,51,25.70
2017,09,04,08,52,25.70
2017,09,04,08,53,25.70
2017,09,04,08,54,25.80
2017,09,04,08,55,25.80
2017,09,04,08,56,25.80
2017,09,04,08,57,25.90
2017,09,04,08,58,25.90
2017,09,04,08,59,25.90
2017,09,04,09,00,26.00
2017,09,04,09,01,26.00
2017,09,04,09,02,26.00
2017,09,04,09,03,26.10
2017,09,04,09,04,26.10
2017,09,04,09,05,26.20
2017,09,04,09,06,26.20
2017,09,04,09,07,26.20
2017,09,04,09,08,26.20
2017,09,04,09,09,26.20
2017,09,04,09,10,26.20
2017,09,04,09,11,26.30
2017,09,04,09,12,26.30
2017,09,04,09,13,26.30
2017,09,04,09,14,26.40
2017,09,04,09,15,26.40
2017,09,04,09,16,26.40
2017,09,04,09,17,26.40
2017,09,04,09,18,26.50
2017,09,04,09,19,26.50
2017,09,04,09,20,26.50
2017,09,04,09,21,26.60
2017,09,04,09,22,26.60
2017,09,04,09,23,26.70
2017,09,04,09,24,26.70
2017,09,04,09,25,26.70
2017,09,04,09,26,26.70
2017,09,04,09,27,26.80
2017,09,04,09,28,26.80
2017,09,04,09,29,26.80
2017,09,04,09,30,26.80
2017,09,04,09,31,26.90
2017,09,04,09,32,26.90
2017,09,04,09,33,26.90
2017,09,04,09,34,27.00
2017,09,04,09,35,27.00
2017,09,04,09,36,27.00
2017,09,04,09,37,27.00
2017,09,04,09,38,27.00
2017,09,04,09,39,27.00
2017,09,04,09,40,27.00
2017,09,04,09,41,27.00
2017,09,04,09,42,27.00
2017,09,04,09,43,27.00
2017,09,04,09,44,27.00
2017,09,04,09,45,27.10
2017,09,04,09,46,27.10
2017,09,04,09,47,27.10
2017,09,04,09,48,27.10
2017,09,04,09,49,27.10
2017,09,04,09,50,27.20
2017,09,04,09,51,27.20
2017,09,04,09,52,27.20
2017,09,04,09,53,27.30
2017,09,04,09,54,27.40
2017,09,04,09,55,27.40
2017,09,04,09,56,27.40
2017,09,04,09,57,27.40
2017,09,04,09,58,27.40
2017,09,04,09,59,27.40
2017,09,04,10,00,27.40
2017,09,04,10,01,27.40
2017,09,04,10,02,27.40
2017,09,04,10,03,27.50
2017,09,04,10,04,27.50
2017,09,04,10,05,27.50
2017,09,04,10,06,27.60
2017,09,04,10,07,27.60
2017,09,04,10,08,27.60
2017,09,04,10,09,27.70
2017,09,04,10,10,27.70
2017,09,04,10,11,27.80
2017,09,04,10,12,27.80
2017,09,04,10,13,27.90
2017,09,04,10,14,27.90
2017,09,04,10,15,27.90
2017,09,04,10,16,27.90
2017,09,04,10,17,28.00
2017,09,04,10,18,28.00
2017,09,04,10,19,28.00
2017,09,04,10,20,28.00
2017,09,04,10,21,28.10
2017,09,04,10,22,28.10
2017,09,04,10,23,28.10
2017,09,04,10,24,28.10
2017,09,04,10,25,28.10
2017,09,04,10,26,28.10
2017,09,04,10,27,28.10
2017,09,04,10,28,28.10
2017,09,04,10,29,28.20
2017,09,04,10,30,28.20
2017,09,04,10,31,28.20
2017,09,04,10,32,28.30
2017,09,04,10,33,28.20
2017,09,04,10,34,28.20
2017,09,04,10,35,28.20
2017,09,04,10,36,28.20
2017,09,04,10,37,28.20
2017,09,04,10,38,28.20
2017,09,04,10,39,28.20
2017,09,04,10,40,28.30
2017,09,04,10,41,28.30
2017,09,04,10,42,28.40
2017,09,04,10,43,28.40
2017,09,04,10,44,28.40
2017,09,04,10,45,28.30
2017,09,04,10,46,28.30
2017,09,04,10,47,28.30
2017,09,04,10,48,28.30
2017,09,04,10,49,28.30
2017,09,04,10,50,28.30
2017,09,04,10,51,28.40
2017,09,04,10,52,28.50
2017,09,04,10,53,28.50
2017,09,04,10,54,28.50
2017,09,04,10,55,28.60
2017,09,04,10,56,28.60
2017,09,04,10,57,28.70
2017,09,04,10,58,28.70
2017,09,04,10,59,28.70
2017,09,04,11,00,28.80
2017,09,04,11,01,28.80
2017,09,04,11,02,28.90
2017,09,04,11,03,28.90
2017,09,04,11,04,29.00
2017,09,04,11,05,29.00
2017,09,04,11,06,29.10
2017,09,04,11,07,29.20
2017,09,04,11,08,29.20
2017,09,04,11,09,29.20
2017,09,04,11,10,29.20
2017,09,04,11,11,29.20
2017,09,04,11,12,29.20
2017,09,04,11,13,29.20
2017,09,04,11,14,29.20
2017,09,04,11,15,29.30
2017,09,04,11,16,29.30
2017,09,04,11,17,29.30
2017,09,04,11,18,29.30
2017,09,04,11,19,29.30
2017,09,04,11,20,29.30
2017,09,04,11,21,29.30
2017,09,04,11,22,29.30
2017,09,04,11,23,29.40
2017,09,04,11,24,29.40
2017,09,04,11,25,29.40
2017,09,04,11,26,29.40
2017,09,04,11,27,29.40
2017,09,04,11,28,29.40
2017,09,04,11,29,29.40
2017,09,04,11,30,29.40
2017,09,04,11,31,29.40
2017,09,04,11,32,29.40
2017,09,04,11,33,29.50
2017,09,04,11,34,29.50
2017,09,04,11,35,29.60
2017,09,04,11,36,29.60
2017,09,04,11,37,29.70
2017,09,04,11,38,29.80
2017,09,04,11,39,29.80
2017,09,04,11,40,29.90
2017,09,04,11,41,29.90
2017,09,04,11,42,29.90
2017,09,04,11,43,30.00
2017,09,04,11,44,30.10
2017,09,04,11,45,30.10
2017,09,04,11,46,30.20
2017,09,04,11,47,30.30
2017,09,04,11,48,30.30
2017,09,04,11,49,30.30
2017,09,04,11,50,30.30
2017,09,04,11,51,30.30
2017,09,04,11,52,30.30
2017,09,04,11,53,30.40
2017,09,04,11,54,30.40
2017,09,04,11,55,30.40
2017,09,04,11,56,30.40
2017,09,04,11,57,30.40
2017,09,04,11,58,30.50
2017,09,04,11,59,30.50
2017,09,04,12,00,30.60
2017,09,04,12,01,30.70
2017,09,04,12,02,30.70
2017,09,04,12,03,30.80
2017,09,04,12,04,30.80
2017,09,04,12,05,30.80
2017,09,04,12,06,30.70
2017,09,04,12,07,30.70
2017,09,04,12,08,30.80
2017,09,04,12,09,30.80
2017,09,04,12,10,30.90
2017,09,04,12,11,30.90
2017,09,04,12,12,30.90
2017,09,04,12,13,31.00
2017,09,04,12,14,31.10
2017,09,04,12,15,31.10
2017,09,04,12,16,31.20
2017,09,04,12,17,31.30
2017,09,04,12,18,31.40
2017,09,04,12,19,31.40
2017,09,04,12,20,31.40
2017,09,04,12,21,31.30
2017,09,04,12,22,31.30
2017,09,04,12,23,31.30
2017,09,04,12,24,31.20
2017,09,04,12,25,31.20
2017,09,04,12,26,31.10
2017,09,04,12,27,31.10
2017,09,04,12,28,31.10
2017,09,04,12,29,31.10
2017,09,04,12,30,31.10
2017,09,04,12,31,31.10
2017,09,04,12,32,31.10
2017,09,04,12,33,31.20
2017,09,04,12,34,31.20
2017,09,04,12,35,31.20
2017,09,04,12,36,31.20
2017,09,04,12,37,31.20
2017,09,04,12,38,31.20
2017,09,04,12,39,31.20
2017,09,04,12,40,31.20
2017,09,04,12,41,31.20
2017,09,04,12,42,31.20
2017,09,04,12,43,31.30
2017,09,04,12,44,31.30
2017,09,04,12,45,31.30
2017,09,04,12,46,31.20
2017,09,04,12,47,31.20
2017,09,04,12,48,31.20
2017,09,04,12,49,31.20
2017,09,04,12,50,31.20
2017,09,04,12,51,31.30
2017,09,04,12,52,31.30
2017,09,04,12,53,31.40
2017,09,04,12,54,31.40
2017,09,04,12,55,31.40
2017,09,04,12,56,31.40
2017,09,04,12,57,31.40
2017,09,04,12,58,31.40
2017,09,04,12,59,31.30
2017,09,04,13,00,31.30
2017,09,04,13,01,31.30
2017,09,04,13,02,31.30
2017,09,04,13,03,31.30
2017,09,04,13,04,31.40
2017,09,04,13,05,31.40
2017,09,04,13,06,31.30
2017,09,04,13,07,31.30
2017,09,04,13,08,31.40
2017,09,04,13,09,31.40
2017,09,04,13,10,31.40
2017,09,04,13,11,31.50
2017,09,04,13,12,31.50
2017,09,04,13,13,31.60
2017,09,04,13,14,31.60
2017,09,04,13,15,31.70
2017,09,04,13,16,31.70
2017,09,04,13,17,31.70
2017,09,04,13,18,31.70
2017,09,04,13,19,31.70
2017,09,04,13,20,31.70
2017,09,04,13,21,31.70
2017,09,04,13,22,31.80
2017,09,04,13,23,31.70
2017,09,04,13,24,31.70
2017,09,04,13,25,31.70
2017,09,04,13,26,31.70
2017,09,04,13,27,31.80
2017,09,04,13,28,31.80
2017,09,04,13,29,31.80
2017,09,04,13,30,31.80
2017,09,04,13,31,31.90
2017,09,04,13,32,31.90
2017,09,04,13,33,32.00
2017,09,04,13,34,32.10
2017,09,04,13,35,32.10
2017,09,04,13,36,32.00
2017,09,04,13,37,31.90
2017,09,04,13,38,31.90
2017,09,04,13,39,31.80
2017,09,04,13,40,31.80
2017,09,04,13,41,31.90
2017,09,04,13,42,32.00
2017,09,04,13,43,32.10
2017,09,04,13,44,32.20
2017,09,04,13,45,32.10
2017,09,04,13,46,32.10
2017,09,04,13,47,32.10
2017,09,04,13,48,32.10
2017,09,04,13,49,32.10
2017,09,04,13,50,32.10
2017,09,04,13,51,32.10
2017,09,04,13,52,32.10
2017,09,04,13,53,32.10
2017,09,04,13,54,32.10
2017,09,04,13,55,32.20
2017,09,04,13,56,32.20
2017,09,04,13,57,32.30
2017,09,04,13,58,32.30
2017,09,04,13,59,32.40
2017,09,04,14,00,32.50
2017,09,04,14,01,32.50
2017,09,04,14,02,32.50
2017,09,04,14,03,32.50
2017,09,04,14,04,32.60
2017,09,04,14,05,32.60
2017,09,04,14,06,32.60
2017,09,04,14,07,32.60
2017,09,04,14,08,32.50
2017,09,04,14,09,32.50
2017,09,04,14,10,32.60
2017,09,04,14,11,32.70
2017,09,04,14,12,32.80
2017,09,04,14,13,32.80
2017,09,04,14,14,32.80
2017,09,04,14,15,32.80
2017,09,04,14,16,32.80
2017,09,04,14,17,32.70
2017,09,04,14,18,32.70
2017,09,04,14,19,32.60
2017,09,04,14,20,32.60
2017,09,04,14,21,32.70
2017,09,04,14,22,32.70
2017,09,04,14,23,32.70
2017,09,04,14,24,32.80
2017,09,04,14,25,32.80
2017,09,04,14,26,32.90
2017,09,04,14,27,32.90
2017,09,04,14,28,32.90
2017,09,04,14,29,32.90
2017,09,04,14,30,33.00
2017,09,04,14,31,33.00
2017,09,04,14,32,33.00
2017,09,04,14,33,32.90
2017,09,04,14,34,32.90
2017,09,04,14,35,32.90
2017,09,04,14,36,32.80
2017,09,04,14,37,32.80
2017,09,04,14,38,32.90
2017,09,04,14,39,33.00
2017,09,04,14,40,33.00
2017,09,04,14,41,32.90
2017,09,04,14,42,32.80
2017,09,04,14,43,32.60
2017,09,04,14,44,32.60
2017,09,04,14,45,32.40
2017,09,04,14,46,32.40
2017,09,04,14,47,32.40
2017,09,04,14,48,32.40
2017,09,04,14,49,32.40
2017,09,04,14,50,32.40
2017,09,04,14,51,32.40
2017,09,04,14,52,32.40
2017,09,04,14,53,32.40
2017,09,04,14,54,32.50
2017,09,04,14,55,32.60
2017,09,04,14,56,32.60
2017,09,04,14,57,32.70
2017,09,04,14,58,32.80
2017,09,04,14,59,32.80
2017,09,04,15,00,32.80
2017,09,04,15,01,32.80
2017,09,04,15,02,32.80
2017,09,04,15,03,32.80
2017,09,04,15,04,32.80
2017,09,04,15,05,32.80
2017,09,04,15,06,32.90
2017,09,04,15,07,32.90
2017,09,04,15,08,32.90
2017,09,04,15,09,32.90
2017,09,04,15,10,32.90
2017,09,04,15,11,33.00
2017,09,04,15,12,33.00
2017,09,04,15,13,33.00
2017,09,04,15,14,33.10
2017,09,04,15,15,33.10
2017,09,04,15,16,33.20
2017,09,04,15,17,33.30
2017,09,04,15,18,33.40
2017,09,04,15,19,33.40
2017,09,04,15,20,33.30
2017,09,04,15,21,33.20
2017,09,04,15,22,33.10
2017,09,04,15,23,33.10
2017,09,04,15,24,33.00
2017,09,04,15,25,33.00
2017,09,04,15,26,32.90
2017,09,04,15,27,32.90
2017,09,04,15,28,32.80
2017,09,04,15,29,32.80
2017,09,04,15,30,32.80
2017,09,04,15,31,32.80
2017,09,04,15,32,32.80
2017,09,04,15,33,32.80
2017,09,04,15,34,32.80
2017,09,04,15,35,32.80
2017,09,04,15,36,32.90
2017,09,04,15,37,32.90
2017,09,04,15,38,33.00
2017,09,04,15,39,33.00
2017,09,04,15,40,33.10
2017,09,04,15,41,33.10
2017,09,04,15,42,33.10
2017,09,04,15,43,33.10
2017,09,04,15,44,33.10
2017,09,04,15,45,33.10
2017,09,04,15,46,33.10
2017,09,04,15,47,33.10
2017,09,04,15,48,33.10
2017,09,04,15,49,33.20
2017,09,04,15,50,33.30
2017,09,04,15,51,33.40
2017,09,04,15,52,33.30
2017,09,04,15,53,33.20
2017,09,04,15,54,33.10
2017,09,04,15,55,33.10
2017,09,04,15,56,33.00
2017,09,04,15,57,33.00
2017,09,04,15,58,33.00
2017,09,04,15,59,33.00
2017,09,04,16,00,33.00
2017,09,04,16,01,33.00
2017,09,04,16,02,33.00
2017,09,04,16,03,32.90
2017,09,04,16,04,32.90
2017,09,04,16,05,32.90
2017,09,04,16,06,33.00
2017,09,04,16,07,33.10
2017,09,04,16,08,33.20
2017,09,04,16,09,33.20
2017,09,04,16,10,33.10
2017,09,04,16,11,33.10
2017,09,04,16,12,33.10
2017,09,04,16,13,33.10
2017,09,04,16,14,33.10
2017,09,04,16,15,33.10
2017,09,04,16,16,33.20
2017,09,04,16,17,33.20
2017,09,04,16,18,33.30
2017,09,04,16,19,33.30
2017,09,04,16,20,33.40
2017,09,04,16,21,33.40
2017,09,04,16,22,33.40
2017,09,04,16,23,33.50
2017,09,04,16,24,33.50
2017,09,04,16,25,33.60
2017,09,04,16,26,33.60
2017,09,04,16,27,33.60
2017,09,04,16,28,33.60
2017,09,04,16,29,33.60
2017,09,04,16,30,33.60
2017,09,04,16,31,33.60
2017,09,04,16,32,33.50
2017,09,04,16,33,33.40
2017,09,04,16,34,33.40
2017,09,04,16,35,33.40
2017,09,04,16,36,33.50
2017,09,04,16,37,33.50
2017,09,04,16,38,33.40
2017,09,04,16,39,33.40
2017,09,04,16,40,33.40
2017,09,04,16,41,33.40
2017,09,04,16,42,33.40
2017,09,04,16,43,33.40
2017,09,04,16,44,33.40
2017,09,04,16,45,33.30
2017,09,04,16,46,33.30
2017,09,04,16,47,33.30
2017,09,04,16,48,33.40
2017,09,04,16,49,33.40
2017,09,04,16,50,33.40
2017,09,04,16,51,33.40
2017,09,04,16,52,33.30
2017,09,04,16,53,33.30
2017,09,04,16,54,33.30
2017,09,04,16,55,33.30
2017,09,04,16,56,33.30
2017,09,04,16,57,33.40
2017,09,04,16,58,33.30
2017,09,04,16,59,33.30
2017,09,04,17,00,33.30
2017,09,04,17,01,33.30
2017,09,04,17,02,33.30
2017,09,04,17,03,33.30
2017,09,04,17,04,33.20
2017,09,04,17,05,33.20
2017,09,04,17,06,33.20
2017,09,04,17,07,33.20
2017,09,04,17,08,33.20
2017,09,04,17,09,33.20
2017,09,04,17,10,33.10
2017,09,04,17,11,33.10
2017,09,04,17,12,33.10
2017,09,04,17,13,33.10
2017,09,04,17,14,33.10
2017,09,04,17,15,33.10
2017,09,04,17,16,33.10
2017,09,04,17,17,33.10
2017,09,04,17,18,33.10
2017,09,04,17,19,33.10